Retour au catalogue

ONEWEB-0522

ActifCommunicationsPO
NORAD 54140·PAYLOAD·🇬🇧 United Kingdom

Lancé Oct 22, 2022 depuis Satish Dhawan Space Centre

Loading…

Prochains Passages (prochaines 24 heures)

TLE

FraisSource: CelesTrak SupGP

Époque: Sep 15, 2026, 03:27 UTC

1 54140C 22138AD  26258.14391620 -.00002581  00000+0 -64536-2 0  2580
2 54140  87.9121 287.0435 0002067  90.2213 302.6559 13.19732213    18

Suivez ONEWEB-0522 en temps réel avec AllMySat

Download on the App Store